Zurück zum Katalog

NOAA 16 DEB

AktivSSO
NORAD 41279·DEBRIS·🇺🇸 United States

Gestartet Sep 21, 2000 von Vandenberg Space Force Base

Loading…

Nächste Überflüge (nächste 24 Stunden)

TLE

AktuellSource: Space-Track

Epoche: Sep 12, 2026, 02:39 UTC

1 41279U 00055GF  26255.11080151  .00001437  00000-0  72428-3 0  9991
2 41279  98.7446 313.2193 0030458  27.3688 332.9084 14.17655173551087

Verfolge NOAA 16 DEB in Echtzeit mit AllMySat

Download on the App Store